Location: Grantsboro
(35.1404°N, 76.8424°W)
Time: 21:27:56
(UTC+00:00)

SL-16 R/B - Pass Details

Date: 18 January 2020
Orbit: 841 x 848 km, 71.0° (Epoch: 17 February)

Event Time Altitude Azimuth Distance (km) Brightness Sun altitude
Rises 00:08:26 0° 353° (N) 3,413 5.3 -21.8°
Reaches altitude 10° 00:11:31 10° 9° (N) 2,473 4.4 -22.5°
Enters shadow 00:11:41 11° 10° (N) 2,429 4.4 -22.5°
